Hourly Data Report for October 18, 2015

All times are specified in Local Standard Time (LST). Add 1 hour to adjust for Daylight Saving Time where and when it is observed.

WINNIPEG A CS
MANITOBA

49°55'00.000" N
97°14'58.000" W
238.70 m
502S001
71849
XWG

Download Data

Hourly Data (October 2015)
Hourly Data Report for October 18, 2015
Temp Definition
°C
Dew Point Temp Definition
°C
Rel Hum Definition
%
Wind Dir Definition
10's deg

Wind Spd Definition
km/h
Visibility Definition
km
Stn Press Definition
kPa
Hmdx Definition


Wind Chill Definition


Weather Definition


TIME
00:00 1.9 -3.5 67 16 17   99.51     LegendNANA
01:00 3.7 -3.4 60 18 22   99.42     LegendNANA
02:00 3.1 -3.4 62 18 22   99.41     LegendNANA
03:00 3.2 -3.4 62 18 25   99.34     LegendNANA
04:00 2.8 -3.6 63 18 24   99.24     LegendNANA
05:00 3.1 -4.1 59 17 26   99.16     LegendNANA
06:00 3.8 -4.1 56 17 26   99.06     LegendNANA
07:00 4.5 -3.9 54 17 30   98.91     LegendNANA
08:00 5.2 -3.1 55 17 30   98.82     LegendNANA
09:00 7.4 -1.6 53 18 35   98.72     LegendNANA
10:00 9.4 0.0 52 18 38   98.62     LegendNANA
11:00 11.4 1.0 49 18 35   98.45     LegendNANA
12:00 13.5 2.0 46 18 43   98.33     LegendNANA
13:00 15.4 2.7 43 18 38   98.18     LegendNANA
14:00 16.6 2.9 40 18 38   98.00     LegendNANA
15:00 17.2 2.8 38 18 42   97.82     LegendNANA
16:00 17.3 3.5 40 19 36   97.75     LegendNANA
17:00 16.5 4.1 44 19 35   97.67     LegendNANA
18:00 15.4 4.5 48 19 29   97.62     LegendNANA
19:00 14.7 5.1 52 20 25   97.57     LegendNANA
20:00 14.1 5.3 55 20 26   97.54     LegendNANA
21:00 13.2 5.2 59 21 21   97.56     LegendNANA
22:00 13.1 5.3 59 21 25   97.51     LegendNANA
23:00 12.3 5.3 62 22 17   97.51     LegendNANA

Notes on Data Quality.

Legend

  • E = Estimated
  • M = Missing
  • NA = Not Available
  • ‡ = Partner data that is not subject to review by the National Climate Archives
Date modified: